Weather History for Fountain Dale, PA

Change the Weather History Date:

Monday, February 27, 2012

  Actual Average (KHGR) Record (KHGR)
Temperature  
Mean Temperature 46 °F -  
Max Temperature 63 °F 43 °F 80 °F (1997)
Min Temperature 30 °F 27 °F 16 °F (2006)
Degree Days  
Heating Degree Days 18    
Moisture  
Dew Point 24 °F    
Average Humidity 42    
Maximum Humidity 66    
Minimum Humidity 26    
Precipitation  
Precipitation 0.00 in - - ()
Sea Level Pressure  
Sea Level Pressure 30.25 in    
Wind  
Wind Speed 3 mph (WSW)    
Max Wind Speed 14 mph    
Max Gust Speed 24 mph    
Visibility 10 miles    
Events      
Averages and records for this station are not official NWS values.
T = Trace of Precipitation, MM = Missing Value Source: NWS Daily Summary

Daily Weather History Graph

Daily Weather History Graph

Search for Another Location

Airport:

Trip Planner

Search our weather history database for the weather conditions in past years. The results will help you decide how hot, cold, wet, or windy it might be!

Date:

Astronomy

Feb. 27, 2012 Rise Set
Actual Time 6:46 AM EST 5:59 PM EST
Civil Twilight 6:19 AM EST 6:26 PM EST
Nautical Twilight 5:48 AM EST 6:57 PM EST
Astronomical Twilight 5:16 AM EST 7:28 PM EST
Moon 9:15 AM EST (2/27) 11:49 PM EST (2/27)
Length of Visible Light 12h 06m
Length of Day
11h 12m
Waxing Crescent, 29% of the Moon is Illuminated
Feb 27
Waxing Crescent
Feb 29
First Quarter
Mar 8
Full
Mar 14
Last Quarter
Mar 22
New

Hourly Weather History & Observations

Time (EST) Temp. Windchill Dew Point Humidity Pressure Visibility Wind Dir Wind Speed Gust Speed Precip Events Conditions
12:53 AM 32.0 °F - 19.9 °F 61% 30.39 in 10.0 mi Calm Calm - N/A   Clear
1:53 AM 34.0 °F - 19.0 °F 54% 30.38 in 10.0 mi Calm Calm - N/A   Clear
2:53 AM 32.0 °F - 21.0 °F 64% 30.36 in 10.0 mi Calm Calm - N/A   Clear
3:53 AM 32.0 °F 28.7 °F 19.9 °F 61% 30.35 in 10.0 mi SW 3.5 mph - N/A   Clear
4:53 AM 30.0 °F 26.5 °F 19.9 °F 66% 30.36 in 10.0 mi WSW 3.5 mph - N/A   Clear
5:53 AM 30.9 °F - 19.9 °F 64% 30.36 in 10.0 mi Calm Calm - N/A   Clear
6:53 AM 30.9 °F - 19.9 °F 64% 30.35 in 10.0 mi Calm Calm - N/A   Clear
7:53 AM 30.9 °F - 19.9 °F 64% 30.36 in 10.0 mi Calm Calm - N/A   Clear
8:53 AM 37.0 °F - 21.9 °F 54% 30.34 in 10.0 mi Calm Calm - N/A   Clear
9:53 AM 45.0 °F - 24.1 °F 44% 30.31 in 10.0 mi Calm Calm - N/A   Clear
10:53 AM 52.0 °F - 26.1 °F 37% 30.27 in 10.0 mi Calm Calm - N/A   Partly Cloudy
11:53 AM 59.0 °F - 26.1 °F 28% 30.24 in 10.0 mi Variable 5.8 mph - N/A   Clear
12:53 PM 59.0 °F - 25.0 °F 27% 30.19 in 10.0 mi SSW 9.2 mph 16.1 mph N/A   Mostly Cloudy
1:53 PM 60.1 °F - 26.1 °F 27% 30.16 in 10.0 mi SW 10.4 mph 20.7 mph N/A   Clear
2:53 PM 62.1 °F - 27.0 °F 26% 30.13 in 10.0 mi SW 10.4 mph 18.4 mph N/A   Clear
3:53 PM 62.1 °F - 28.0 °F 28% 30.11 in 10.0 mi SW 9.2 mph - N/A   Overcast
4:53 PM 63.0 °F - 28.0 °F 27% 30.11 in 10.0 mi SW 5.8 mph - N/A   Mostly Cloudy
5:53 PM 63.0 °F - 28.9 °F 28% 30.13 in 10.0 mi SW 13.8 mph 24.2 mph N/A   Clear
6:53 PM 60.1 °F - 28.9 °F 31% 30.14 in 10.0 mi SW 8.1 mph 18.4 mph N/A   Clear
7:53 PM 60.1 °F - 28.9 °F 31% 30.15 in 10.0 mi Variable 6.9 mph - N/A   Clear
8:53 PM 59.0 °F - 27.0 °F 29% 30.17 in 10.0 mi West 8.1 mph 16.1 mph N/A   Clear
9:53 PM 55.9 °F - 21.0 °F 26% 30.19 in 10.0 mi WSW 8.1 mph 18.4 mph N/A   Clear
10:53 PM 54.0 °F - 19.9 °F 26% 30.22 in 10.0 mi West 9.2 mph 23.0 mph N/A   Clear
11:53 PM 48.9 °F - 23.0 °F 36% 30.27 in 10.0 mi WNW 11.5 mph 20.7 mph N/A   Clear